Tracking 35275 objects as of 8-Sep-2026
HD Live streaming from Space Station
objects crossing your sky now

STARLINK-34194

Track STARLINK-34194 now!
10-day predictions
STARLINK-34194 is classified as:


NORAD ID: 64179
Int'l Code: 2025-113K
Launch date: May 28, 2025
Source: United States (US)
Launch site: AIR FORCE EASTERN TEST RANGE (AFETR)
Your satellite tracking list
Your tracking list is empty




NASA's NSSDC Master Catalog

Two Line Element Set (TLE):
1 64179U 25113K   26251.49465636  .00031811  00000-0  94801-3 0  9997
2 64179  53.1608 317.7499 0001212  82.6563 277.4577 15.34420890 73115
Source of the keplerian elements: AFSPC